Regional Weather Roundup
Issued by NWS Cleveland, OH

Home | Current Version | Previous Version | Text Only | Print | Product List | Glossary Off
Versions: 1 2 3 4 5 6 7 8 9 10 11 12 13 14 15 16 17 18 19 20 21 22 23 24 25 26 27 28 29 30 31 32 33 34 35 36 37 38 39 40 41 42 43 44 45 46 47 48 49 50

000
ASUS41 KCLE 310802
RWRCLE
OHIO REGIONAL WEATHER ROUNDUP
NATIONAL WEATHER SERVICE CLEVELAND, OH
400 AM EDT THU JUL 31 2014

NOTE: "FAIR" INDICATES FEW OR NO CLOUDS BELOW 12,000 FEET WITH NO
SIGNIFICANT WEATHER AND/OR OBSTRUCTIONS TO VISIBILITY.

OHZ001>008-015>018-024>027-034-035-043-044-310900-
   NORTHWEST OHIO

CITY           SKY/WX    TMP DP  RH WIND       PRES   REMARKS
DEFIANCE       CLEAR     56  53  90 CALM      30.03S
FINDLAY        CLEAR     61  56  83 SW6       30.02S
TOLEDO EXPRESS CLEAR     55  52  89 W3        30.01S
TOLEDO EXEC    CLEAR     56  53  90 W5        30.01F
LIMA           MOCLDY    63  60  90 CALM      30.04S
$$

OHZ009>014-019>023-028>033-038-089-310900-
   NORTHEAST OHIO

CITY           SKY/WX    TMP DP  RH WIND       PRES   REMARKS
CLE-HOPKINS    PTCLDY    60  58  92 S6        30.02S
CLE-LAKEFRONT  PTCLDY    62  59  90 MISG      29.99R
CUY CO. ARPT   NOT AVBL
LORAIN-ELYRIA  PTCLDY    60  56  86 SW5       30.01S FOG
ASHTABULA      MOCLDY    59  57  93 SW8       30.00S
AKRON-CANTON   MOCLDY    59  57  93 S5        30.02F FOG
WOOSTER        PTCLDY    58  56  93 SW5       30.03S FOG
MANSFIELD      PTCLDY    62  60  93 SW8       30.03S
YOUNGSTOWN     MOCLDY    58  55  90 S7        30.02S
$$

OHZ042-051>053-060>062-070>072-077>081-310900-
  SOUTHWEST OHIO

CITY           SKY/WX    TMP DP  RH WIND       PRES   REMARKS
CINC-COVINGTON CLOUDY    66  61  84 S3        30.07S
CINC-LUNKEN    CLOUDY    64  60  87 CALM      30.07S
HAMILTON       CLEAR     59  59 100 CALM      30.07S FOG
DAYTON         CLEAR     62  58  86 CALM      30.06S
WRIGHT-PAT AFB CLEAR     60  59  99 S3        30.05F
DAYTON GENERAL CLEAR     60  59  96 S6        30.06S
WILMINGTON     CLEAR     59  57  93 S5        30.07F FOG
$$

OHZ036-037-039>041-045>050-054>059-063>069-073>076-082>088-310900-
  CENTRAL AND SOUTHEAST OHIO

CITY           SKY/WX    TMP DP  RH WIND       PRES   REMARKS
COLUMBUS       PTCLDY    64  59  83 S6        30.05S
OSU AIRPORT    PTCLDY    62  57  83 SW5       30.05S
BOLTON FIELD   PTCLDY    59  59 100 S6        30.06S
RICKENBACK AFB MOCLDY    61  57  85 S6        30.05F
NEWARK         MOCLDY    62  59  90 S6        30.04S
MARION         MOCLDY    63  59  87 W5        30.04S
LANCASTER      CLOUDY    62  58  86 S5        30.06S
ZANESVILLE     CLOUDY    61  58  90 S7        30.05S
NEW PHILLY     CLOUDY    59  58  96 SE3       30.05S FOG
$$


USA.gov is the U.S. government's official web portal to all federal, state and local government web resources and services.